Location: Lewisville
(33.0462°N, 96.9942°W)
Time: 05:59:56
(UTC-05:00)

Tianhe-1 - Visible Passes

Search period start: 25 June 2021 00:00
Search period end: 05 July 2021 00:00
Orbit: 375 x 385 km, 41.5° (Epoch: 25 June)

Date Brightness Start Highest point End Pass type
(mag) Time Alt. Az. Time Alt. Az. Time Alt. Az.
25 Jun 3.6 03:42:26 20° N 03:42:26 20° N 03:44:29 10° NE visible
25 Jun 3.8 05:17:08 10° NW 05:19:25 18° N 05:21:42 10° NE visible
26 Jun 3.8 04:16:09 11° NW 04:18:04 17° N 04:20:14 10° NE visible
27 Jun 4.2 03:17:50 15° NNE 03:17:50 15° NNE 03:18:56 10° NE visible
27 Jun 3.6 04:51:37 10° NW 04:54:06 21° NNE 04:56:36 10° ENE visible
28 Jun 3.7 03:51:45 16° NNW 03:52:43 18° N 03:54:58 10° NE visible
28 Jun 2.4 05:26:56 10° NW 05:29:57 42° NNE 05:32:58 10° E visible
29 Jun 3.2 04:25:56 10° NW 04:28:39 27° NNE 04:31:24 10° ENE visible
30 Jun 4.0 03:28:22 17° NE 03:28:22 17° NE 03:29:42 10° ENE visible
30 Jun 1.2 05:01:11 10° WNW 05:04:18 74° NNE 05:07:26 10° ESE visible
01 Jul 2.6 04:03:38 35° NE 04:03:38 35° NE 04:06:01 10° E visible
01 Jul 2.0 05:36:57 10° W 05:39:40 27° SW 05:42:23 10° SSE visible
01 Jul 1.4 22:07:14 10° SW 22:09:55 42° SSE 22:09:55 42° SSE visible
02 Jul 2.2 04:39:45 31° SE 04:39:45 31° SE 04:41:36 10° SE visible
02 Jul 2.4 21:06:37 10° SSW 21:09:02 21° SE 21:11:28 10° E visible
02 Jul 1.9 22:42:35 10° W 22:45:36 48° NNW 22:45:48 47° N visible
03 Jul 0.9 21:41:11 10° WSW 21:44:16 87° SSE 21:47:23 10° ENE visible
03 Jul 3.6 23:18:44 10° WNW 23:20:49 21° NNW 23:20:49 21° NNW visible
04 Jul 2.9 22:16:57 10° W 22:19:46 31° NNW 22:22:35 10° NE visible
04 Jul 4.6 23:54:56 10° NW 23:55:09 11° NW 23:55:09 11° NW visible
